TimeMDT,TemperatureF,Dew PointF,Humidity,Sea Level PressureIn,VisibilityMPH,Wind Direction,Wind SpeedMPH,Gust SpeedMPH,PrecipitationIn,Events,Conditions,WindDirDegrees,DateUTC
12:56 AM,44.1,30.9,60,30.18,10.0,WSW,8.1,-,N/A,,Clear,240,2013-05-05 06:56:00
1:56 AM,39.0,30.0,70,30.17,10.0,Calm,Calm,-,N/A,,Clear,0,2013-05-05 07:56:00
2:56 AM,39.0,30.9,73,30.16,10.0,WSW,8.1,-,N/A,,Clear,250,2013-05-05 08:56:00
3:56 AM,36.0,28.9,76,30.17,10.0,NW,4.6,-,N/A,,Clear,310,2013-05-05 09:56:00
4:56 AM,33.1,30.0,89,30.18,10.0,North,4.6,-,N/A,,Clear,360,2013-05-05 10:56:00
5:56 AM,28.9,27.0,92,30.18,10.0,Calm,Calm,-,N/A,,Clear,0,2013-05-05 11:56:00
6:56 AM,30.9,28.9,92,30.18,10.0,Variable,3.5,-,N/A,,Clear,0,2013-05-05 12:56:00
7:56 AM,39.0,33.1,79,30.17,10.0,Calm,Calm,-,N/A,,Clear,0,2013-05-05 13:56:00
8:56 AM,45.0,34.0,65,30.16,10.0,Calm,Calm,-,N/A,,Clear,0,2013-05-05 14:56:00
9:56 AM,50.0,34.0,54,30.14,10.0,North,4.6,-,N/A,,Clear,350,2013-05-05 15:56:00
10:56 AM,55.0,33.1,43,30.10,10.0,Variable,3.5,-,N/A,,Clear,0,2013-05-05 16:56:00
11:56 AM,57.9,34.0,41,30.09,10.0,Variable,4.6,-,N/A,,Clear,0,2013-05-05 17:56:00
12:56 PM,61.0,30.9,32,30.04,10.0,East,9.2,-,N/A,,Partly Cloudy,100,2013-05-05 18:56:00
1:56 PM,64.9,30.9,28,30.03,10.0,ENE,9.2,17.3,N/A,,Clear,60,2013-05-05 19:56:00
2:56 PM,64.0,30.9,29,30.01,10.0,NE,10.4,18.4,N/A,,Clear,40,2013-05-05 20:56:00
3:56 PM,64.9,30.9,28,30.01,10.0,East,9.2,-,N/A,,Clear,100,2013-05-05 21:56:00
4:56 PM,66.0,32.0,28,29.99,10.0,NE,11.5,-,N/A,,Clear,40,2013-05-05 22:56:00
5:56 PM,66.0,34.0,30,29.99,10.0,ENE,11.5,-,N/A,,Clear,60,2013-05-05 23:56:00
6:56 PM,63.0,32.0,31,29.99,10.0,ENE,12.7,-,N/A,,Clear,70,2013-05-06 00:56:00
7:56 PM,60.1,30.9,33,29.97,10.0,ESE,8.1,-,N/A,,Clear,110,2013-05-06 01:56:00
8:56 PM,50.0,32.0,50,30.00,10.0,SE,6.9,-,N/A,,Clear,140,2013-05-06 02:56:00
9:56 PM,46.9,30.9,54,30.00,10.0,SE,5.8,-,N/A,,Clear,130,2013-05-06 03:56:00
10:56 PM,50.0,30.0,46,29.98,10.0,Calm,Calm,-,N/A,,Clear,0,2013-05-06 04:56:00
11:56 PM,42.1,30.9,65,30.00,10.0,West,8.1,-,N/A,,Clear,270,2013-05-06 05:56:00